TimeCST,TemperatureF,Dew PointF,Humidity,Sea Level PressureIn,VisibilityMPH,Wind Direction,Wind SpeedMPH,Gust SpeedMPH,PrecipitationIn,Events,Conditions,WindDirDegrees,DateUTC
12:05 AM,6.8,3.2,85,30.14,10.0,South,13.8,-,N/A,,Overcast,190,2013-12-25 06:05:00
12:25 AM,6.8,3.2,85,30.13,10.0,South,15.0,18.4,N/A,,Overcast,190,2013-12-25 06:25:00
1:05 AM,8.6,5.0,85,30.12,10.0,South,12.7,-,N/A,,Overcast,190,2013-12-25 07:05:00
2:05 AM,8.6,5.0,85,30.11,10.0,SSW,12.7,-,N/A,,Overcast,210,2013-12-25 08:05:00
2:25 AM,8.6,5.0,85,30.12,10.0,SSW,10.4,-,N/A,,Overcast,210,2013-12-25 08:25:00
2:45 AM,10.4,6.8,85,30.12,10.0,SW,11.5,-,N/A,,Overcast,220,2013-12-25 08:45:00
3:05 AM,10.4,6.8,85,30.12,7.0,SW,10.4,-,N/A,,Overcast,220,2013-12-25 09:05:00
3:25 AM,10.4,6.8,85,30.11,10.0,SW,11.5,-,N/A,,Overcast,220,2013-12-25 09:25:00
4:31 AM,11.3,8.6,89,30.09,10.0,SW,8.1,-,N/A,Snow,Light Snow,220,2013-12-25 10:31:00
4:32 AM,11.3,8.6,89,30.09,10.0,SW,8.1,-,N/A,Snow,Light Snow,220,2013-12-25 10:32:00
4:53 AM,11.5,8.8,89,30.08,7.0,SSW,10.4,-,N/A,,Overcast,210,2013-12-25 10:53:00
5:12 AM,11.8,9.5,90,30.07,7.0,SSW,9.2,-,N/A,,Overcast,210,2013-12-25 11:12:00
5:33 AM,12.2,10.0,91,30.09,7.0,SSW,8.1,-,N/A,,Overcast,210,2013-12-25 11:33:00
5:53 AM,12.7,10.8,92,30.09,5.0,SW,8.1,-,N/A,,Overcast,220,2013-12-25 11:53:00
6:13 AM,13.1,10.9,91,30.08,5.0,SW,8.1,-,N/A,,Overcast,220,2013-12-25 12:13:00
6:33 AM,13.6,11.3,90,30.09,5.0,SW,8.1,-,N/A,,Overcast,230,2013-12-25 12:33:00
6:53 AM,13.8,11.7,91,30.08,4.0,SW,6.9,-,N/A,,Overcast,220,2013-12-25 12:53:00
7:13 AM,13.8,11.7,91,30.08,4.0,SSW,8.1,-,N/A,,Overcast,210,2013-12-25 13:13:00
7:33 AM,14.4,12.2,91,30.08,4.0,SW,6.9,-,N/A,,Overcast,220,2013-12-25 13:33:00
7:52 AM,14.9,12.7,91,30.08,1.5,SSW,9.2,-,N/A,Snow,Light Snow,210,2013-12-25 13:52:00
8:13 AM,15.4,13.5,92,30.08,1.8,SSW,9.2,-,N/A,Snow,Light Snow,210,2013-12-25 14:13:00
8:33 AM,16.2,14.0,91,30.08,1.8,SSW,10.4,-,N/A,Snow,Light Snow,210,2013-12-25 14:33:00
8:53 AM,16.7,14.7,92,30.08,1.5,SSW,9.2,-,N/A,Snow,Light Snow,210,2013-12-25 14:53:00
9:12 AM,17.2,15.3,92,30.08,1.2,SSW,8.1,-,N/A,Snow,Light Snow,210,2013-12-25 15:12:00
9:33 AM,18.0,15.8,91,30.08,1.0,SW,8.1,-,N/A,Snow,Light Snow,220,2013-12-25 15:33:00
9:53 AM,18.5,16.5,92,30.08,1.0,SSW,8.1,-,N/A,Snow,Light Snow,210,2013-12-25 15:53:00
10:13 AM,19.0,17.1,92,30.08,1.2,SSW,9.2,-,N/A,Snow,Light Snow,210,2013-12-25 16:13:00
10:33 AM,19.6,17.4,91,30.09,1.5,SSW,8.1,-,N/A,Snow,Light Snow,210,2013-12-25 16:33:00
10:53 AM,20.1,17.2,89,30.08,2.5,SSW,11.5,-,N/A,Snow,Light Snow,210,2013-12-25 16:53:00
11:13 AM,20.3,17.6,89,30.07,1.2,SSW,10.4,-,N/A,Snow,Light Snow,210,2013-12-25 17:13:00
11:32 AM,21.0,18.1,89,30.07,1.0,SW,10.4,-,N/A,Snow,Light Snow,220,2013-12-25 17:32:00
11:53 AM,21.7,18.5,87,30.06,3.0,SW,10.4,-,N/A,Snow,Light Snow,230,2013-12-25 17:53:00
12:13 PM,22.5,18.9,86,30.06,7.0,WSW,11.5,-,N/A,Snow,Light Snow,240,2013-12-25 18:13:00
12:33 PM,22.8,19.0,85,30.05,7.0,WSW,11.5,-,N/A,,Overcast,240,2013-12-25 18:33:00
12:53 PM,23.4,19.4,85,30.05,7.0,WSW,12.7,18.4,N/A,,Overcast,240,2013-12-25 18:53:00
1:13 PM,23.2,19.9,87,30.04,5.0,WSW,11.5,-,N/A,,Overcast,240,2013-12-25 19:13:00
1:33 PM,23.7,20.8,89,30.03,5.0,WSW,10.4,-,N/A,,Overcast,250,2013-12-25 19:33:00
1:52 PM,24.4,21.7,89,30.03,5.0,West,13.8,-,N/A,,Overcast,260,2013-12-25 19:52:00
2:13 PM,24.8,22.5,91,30.03,4.0,West,11.5,-,N/A,,Overcast,260,2013-12-25 20:13:00
2:32 PM,25.3,23.0,91,30.04,4.0,West,11.5,-,N/A,,Overcast,270,2013-12-25 20:32:00
2:53 PM,26.1,23.7,91,30.04,5.0,West,12.7,17.3,N/A,,Overcast,270,2013-12-25 20:53:00
3:13 PM,26.2,23.9,91,30.04,5.0,West,10.4,-,N/A,,Overcast,260,2013-12-25 21:13:00
3:33 PM,26.6,24.3,91,30.04,5.0,West,8.1,-,N/A,,Overcast,260,2013-12-25 21:33:00
3:53 PM,28.0,25.2,89,30.04,7.0,WNW,20.7,24.2,N/A,,Overcast,290,2013-12-25 21:53:00
4:13 PM,23.7,15.1,70,30.05,10.0,WNW,20.7,27.6,N/A,,Scattered Clouds,290,2013-12-25 22:13:00
4:33 PM,20.8,13.8,74,30.05,10.0,West,11.5,-,N/A,,Clear,280,2013-12-25 22:33:00
4:52 PM,19.2,13.8,80,30.06,10.0,West,18.4,-,N/A,,Clear,280,2013-12-25 22:52:00
5:13 PM,18.1,13.3,81,30.07,10.0,WNW,16.1,21.9,N/A,,Clear,290,2013-12-25 23:13:00
5:33 PM,17.2,12.4,81,30.07,10.0,WNW,16.1,24.2,N/A,,Clear,300,2013-12-25 23:33:00
5:52 PM,15.8,11.5,83,30.08,10.0,WNW,16.1,19.6,N/A,,Clear,290,2013-12-25 23:52:00
6:12 PM,15.8,11.5,83,30.09,10.0,NW,19.6,25.3,N/A,,Clear,310,2013-12-26 00:12:00
6:33 PM,15.4,11.1,83,30.09,10.0,WNW,16.1,-,N/A,,Clear,300,2013-12-26 00:33:00
6:52 PM,14.9,10.9,84,30.10,10.0,WNW,16.1,-,N/A,,Clear,300,2013-12-26 00:52:00
7:13 PM,14.5,10.4,84,30.10,10.0,WNW,16.1,23.0,N/A,,Clear,300,2013-12-26 01:13:00
7:33 PM,14.0,10.2,85,30.10,10.0,WNW,18.4,24.2,N/A,,Clear,300,2013-12-26 01:33:00
7:52 PM,13.8,10.0,85,30.11,10.0,NW,17.3,23.0,N/A,,Clear,310,2013-12-26 01:52:00
8:13 PM,13.5,9.3,84,30.11,10.0,WNW,16.1,-,N/A,,Clear,300,2013-12-26 02:13:00
8:32 PM,12.9,8.8,84,30.11,10.0,NW,16.1,19.6,N/A,,Clear,310,2013-12-26 02:32:00
8:53 PM,12.7,8.2,82,30.11,10.0,NW,12.7,-,N/A,,Clear,310,2013-12-26 02:53:00
9:12 PM,12.0,7.7,83,30.12,10.0,NW,12.7,-,N/A,,Clear,310,2013-12-26 03:12:00
9:33 PM,11.3,6.8,82,30.12,10.0,WNW,10.4,-,N/A,,Clear,300,2013-12-26 03:33:00
9:53 PM,10.0,6.1,84,30.12,10.0,WNW,6.9,-,N/A,,Clear,300,2013-12-26 03:53:00
10:12 PM,10.0,6.4,85,30.12,10.0,West,5.8,-,N/A,,Scattered Clouds,280,2013-12-26 04:12:00
10:33 PM,10.2,6.3,84,30.11,10.0,West,4.6,-,N/A,,Overcast,270,2013-12-26 04:33:00
10:53 PM,11.1,7.3,85,30.11,10.0,West,5.8,-,N/A,,Overcast,280,2013-12-26 04:53:00
11:12 PM,11.3,7.7,85,30.11,10.0,West,6.9,-,N/A,,Overcast,280,2013-12-26 05:12:00
11:33 PM,12.0,8.2,85,30.11,10.0,West,5.8,-,N/A,,Overcast,280,2013-12-26 05:33:00
11:53 PM,12.2,8.4,85,30.12,10.0,West,8.1,-,N/A,,Overcast,270,2013-12-26 05:53:00